Home > Time Zones > World Clock > Weather > Russia > Perm > Past weeks

Flag Weather past 2 weeks in Perm, Russia

Now
-9 °F

Clear.


Feels Like: -23 °F
Forecast: 8 / 21 °F
Wind: 6 mph from Southwest

Location: Perm'/Bolshoe Savino

Current Time: Nov 24, 2014 at 9:27:26 AM

Latest Report: Nov 24, 2014 at 9:00 AM


Visibility: 10 mi

Pressure: 30.69 "Hg

Humidity: 77%

Dew point: -15 °F

Location of PermLocation

Historic Weather in Perm — Graph

°F

Perm temperature yesterday

Maximum temperature yesterday: 23 °F (at 12:00 AM)
Minimum temperature yesterday: -2 °F (at 11:30 PM)
Average temperature yesterday: 12 °F

Past Weeks' High & Low Weather Summary

 TemperatureHumidityPressure
High36 °F (Nov 10, 2:00 PM)100% (Nov 9, 1:30 PM)30.72 "Hg (Nov 9, 1:30 PM)
Low-11 °F (Nov 24, 7:30 AM)61% (Nov 23, 2:30 PM)29.92 "Hg (Nov 22, 11:30 PM)
Average24 °F89%30.32 "Hg
* Reported Nov 9 8:00 AM — Nov 24 8:00 AM, Perm, Weather by CustomWeather, © 2014

Note: Actual official high and low records may vary slightly from our data, if they occured in-between our weather recording intervals... More about our weather records

Advertising

Perm weather history for previous 24 hours

 ConditionsComfort  
Time TempWeatherWind HumidityBarometerVisibility
8:00 AM
Nov 24
-9 °FClear.8 mph77%30.72 "Hg10 mi
7:30 AM-11 °FClear.8 mph84%30.72 "Hg10 mi
7:00 AM-9 °FClear.6 mph77%30.72 "Hg10 mi
6:30 AM-9 °FClear.6 mph77%30.72 "Hg10 mi
6:00 AM-9 °FClear.8 mph77%30.72 "Hg10 mi
5:30 AM-8 °FClear.6 mph84%30.72 "Hg10 mi
4:30 AM-8 °FPassing clouds.6 mph84%30.72 "HgN/A
4:00 AM-8 °FClear.6 mph84%30.72 "Hg2 mi
3:30 AM-8 °FClear.3 mph84%30.72 "Hg10 mi
3:00 AM-8 °FClear.3 mph84%30.69 "Hg10 mi
2:30 AM-8 °FClear.3 mph84%30.69 "Hg10 mi
2:00 AM-6 °FClear.3 mph84%30.69 "Hg10 mi
1:30 AM-4 °FClear.3 mph84%30.69 "Hg10 mi
1:00 AM-2 °FClear.3 mph77%30.69 "Hg10 mi
12:30 AM-2 °FClear.3 mph84%30.69 "Hg10 mi
12:00 AM-2 °FClear.3 mph77%30.69 "Hg10 mi
11:30 PM
Nov 23
-2 °FClear.3 mph84%30.66 "Hg10 mi
11:00 PM0 °FClear.6 mph78%30.66 "Hg10 mi
10:30 PM0 °FClear.1 mph78%30.66 "Hg10 mi
10:00 PM0 °FClear.3 mph78%30.63 "Hg10 mi
9:30 PM0 °FClear.3 mph84%30.63 "Hg10 mi
9:00 PM1 °FClear.3 mph71%30.63 "Hg10 mi
8:30 PM1 °FClear.3 mph78%30.63 "Hg10 mi
8:00 PM3 °FPassing clouds.6 mph78%30.60 "HgN/A
7:30 PM3 °FPassing clouds.6 mph78%30.57 "HgN/A
7:00 PM3 °FPassing clouds.3 mph72%30.57 "HgN/A
6:30 PM5 °FPassing clouds.6 mph66%30.57 "HgN/A
6:00 PM5 °FPassing clouds.8 mph66%30.54 "HgN/A
5:30 PM7 °FPassing clouds.10 mph61%30.54 "HgN/A
5:00 PM7 °FPassing clouds.10 mph66%30.51 "HgN/A
4:30 PM9 °FPassing clouds.10 mph66%30.48 "HgN/A
4:00 PM9 °FPassing clouds.10 mph66%30.45 "HgN/A
3:30 PM10 °FPassing clouds.8 mph67%30.45 "HgN/A
3:00 PM10 °FPassing clouds.10 mph61%30.42 "HgN/A
2:30 PM10 °FPassing clouds.13 mph61%30.42 "HgN/A
2:00 PM10 °FLow level haze.13 mph67%30.39 "HgN/A
1:30 PM10 °FScattered clouds.13 mph67%30.39 "HgN/A
1:00 PM10 °FScattered clouds.13 mph67%30.36 "HgN/A
12:30 PM10 °FScattered clouds.15 mph67%30.33 "HgN/A
12:00 PM10 °FPartly sunny.15 mph72%30.30 "HgN/A
11:30 AM12 °FPartly sunny.15 mph67%30.30 "HgN/A
11:00 AM12 °FPartly sunny.20 mph67%30.27 "HgN/A
10:30 AM12 °FPartly sunny.20 mph73%30.24 "HgN/A
10:00 AM12 °FSnow flurries. Partly sunny.17 mph79%30.21 "HgN/A
9:30 AM14 °FLight snow. Mostly cloudy.17 mph79%30.18 "HgN/A
9:00 AM14 °FLight snow. Mostly cloudy.22 mph73%30.15 "Hg6 mi
Weather by CustomWeather, © 2014

See weather overviewHow to use our weather pages